New Orleans Lakefront, LA

5:06 AM CDT on May 26, 2017 (GMT -0500)
Lakefront

Weather History for KNEW - August, 2013

Change the Weather History Date:

Tuesday, August 27, 2013

  Actual Average Record
Temperature  
Mean Temperature 80 °F 83 °F  
Max Temperature 87 °F 91 °F 99 °F (1989)
Min Temperature 73 °F 75 °F 63 °F (1966)
Degree Days  
Heating Degree Days 0 0  
Month to date heating degree days 0 0  
Since 1 June heating degree days 0 0  
Since 1 July heating degree days 0 0  
Cooling Degree Days 15 18  
Month to date cooling degree days 492 486  
Year to date cooling degree days 2072 2166  
Since 1 June cooling degree days 1579 1547  
Growing Degree Days 32 (Base 50)    
Moisture  
Dew Point 69 °F    
Average Humidity 70    
Maximum Humidity 93    
Minimum Humidity 46    
Precipitation  
Precipitation 0.00 in 0.18 in 2.85 in (1991)
Month to date precipitation 7.22 5.20  
Year to date precipitation 50.31 43.43  
Snow  
Snow 0.00 in - - ()
Month to date snowfall 0.0  
Since 1 June snowfall 0.0  
Since 1 July snowfall 0.0  
Snow Depth 0.00 in    
Sea Level Pressure  
Sea Level Pressure 30.07 in    
Wind  
Wind Speed 4 mph (NE)    
Max Wind Speed 12 mph    
Max Gust Speed 16 mph    
Visibility 10 miles    
Events      
T = Trace of Precipitation, MM = Missing Value Source: NWS Daily Summary

Daily Weather History Graph

Daily Weather History Graph

Search for Another Location

Airport or City:

Trip Planner

Search our weather history database for the weather conditions in past years. The results will help you decide how hot, cold, wet, or windy it might be!

Date:

Astronomy

Aug. 27, 2013 Rise Set
Actual Time 6:34 AM CDT 7:28 PM CDT
Civil Twilight 6:09 AM CDT 7:52 PM CDT
Nautical Twilight 5:40 AM CDT 8:21 PM CDT
Astronomical Twilight 5:11 AM CDT 8:51 PM CDT
Moon 11:53 PM CDT (8/27) 1:00 PM CDT (8/27)
Length of Visible Light 13h 42m
Length of Day
12h 53m
Waning Gibbous, 57% of the Moon is Illuminated
Aug 27
Waning Gibbous
Aug 28
Last Quarter
Sep 5
New
Sep 12
First Quarter
Sep 19
Full

Hourly Weather History & Observations

Time (CDT) Temp. Heat Index Dew Point Humidity Pressure Visibility Wind Dir Wind Speed Gust Speed Precip Events Conditions
12:53 AM 80.1 °F 83.8 °F 72.0 °F 76% 30.10 in 10.0 mi East 5.8 mph - N/A   Clear
1:53 AM 80.1 °F 84.2 °F 73.0 °F 79% 30.08 in 10.0 mi ENE 9.2 mph - N/A   Clear
2:53 AM 80.1 °F 84.2 °F 73.0 °F 79% 30.07 in 10.0 mi ENE 11.5 mph - N/A   Clear
3:53 AM 79.0 °F - 70.0 °F 74% 30.06 in 10.0 mi ENE 12.7 mph - N/A   Clear
4:53 AM 78.1 °F - 70.0 °F 76% 30.07 in 10.0 mi East 9.2 mph - N/A   Clear
5:53 AM 77.0 °F - 71.1 °F 82% 30.08 in 10.0 mi East 6.9 mph - N/A   Clear
6:53 AM 78.1 °F - 72.0 °F 81% 30.08 in 10.0 mi East 6.9 mph - N/A   Clear
7:53 AM 79.0 °F - 72.0 °F 79% 30.09 in 10.0 mi East 4.6 mph - N/A   Clear
8:53 AM 80.1 °F 83.8 °F 72.0 °F 76% 30.10 in 10.0 mi NE 6.9 mph - N/A   Clear
9:53 AM 82.0 °F 87.4 °F 73.0 °F 74% 30.10 in 10.0 mi NE 4.6 mph - N/A   Clear
10:53 AM 84.0 °F 90.2 °F 73.0 °F 69% 30.11 in 10.0 mi North 9.2 mph - N/A   Partly Cloudy
11:53 AM 84.9 °F 91.4 °F 73.0 °F 67% 30.10 in 10.0 mi NNE 9.2 mph - N/A   Partly Cloudy
12:53 PM 86.0 °F 91.5 °F 71.1 °F 61% 30.09 in 10.0 mi North 6.9 mph - N/A   Partly Cloudy
1:53 PM 86.0 °F 90.1 °F 69.1 °F 57% 30.07 in 10.0 mi NNW 4.6 mph - N/A   Partly Cloudy
2:53 PM 87.1 °F 89.9 °F 66.9 °F 51% 30.05 in 10.0 mi NNW 4.6 mph - N/A   Partly Cloudy
3:53 PM 88.0 °F 90.3 °F 66.0 °F 48% 30.05 in 10.0 mi Variable 3.5 mph - N/A   Partly Cloudy
4:53 PM 88.0 °F 89.6 °F 64.9 °F 46% 30.04 in 10.0 mi Calm Calm - N/A   Partly Cloudy
5:53 PM 87.1 °F 88.3 °F 64.0 °F 46% 30.04 in 10.0 mi Variable 4.6 mph - N/A   Clear
6:53 PM 86.0 °F 86.8 °F 63.0 °F 46% 30.03 in 10.0 mi NNE 8.1 mph - N/A   Clear
7:53 PM 84.9 °F 85.9 °F 63.0 °F 48% 30.04 in 10.0 mi NNE 6.9 mph - N/A   Clear
8:53 PM 82.0 °F 84.9 °F 68.0 °F 62% 30.04 in 10.0 mi Calm Calm - N/A   Clear
9:53 PM 81.0 °F 83.3 °F 66.9 °F 62% 30.05 in 10.0 mi SE 4.6 mph - N/A   Clear
10:53 PM 82.0 °F 84.9 °F 68.0 °F 62% 30.05 in 10.0 mi ENE 5.8 mph - N/A   Clear
11:53 PM 78.1 °F - 69.1 °F 74% 30.05 in 10.0 mi SSE 4.6 mph - N/A   Clear